Regional Weather Roundup
Issued by NWS

Home | Current Version | Previous Version | Text Only | Print | Product List | Glossary Off
Versions: 1 2 3 4 5 6 7 8 9 10 11 12 13 14 15 16 17 18 19 20 21 22 23 24 25 26 27 28 29 30 31 32 33 34 35 36 37 38 39 40 41 42 43 44 45 46 47 48 49 50

000
ASUS45 KPSR 290110
RWRAZ

ARIZONA REGIONAL HOURLY WEATHER ROUNDUP
NATIONAL WEATHER SERVICE PHOENIX AZ
600 PM MST SAT MAR 28 2015

NOTE: FAIR INDICATES FEW OR NO CLOUDS BELOW 12,000 FEET WITH NO
SIGNIFICANT WEATHER AND/OR OBSTRUCTIONS TO VISIBILITY.

AZZ001>003-036-290200-
NORTHWEST ARIZONA

CITY           SKY/WX    TMP DP  RH WIND       PRES   REMARKS
BULLHEAD CITY  SUNNY     93  19   7 SE10G16   29.89S
KINGMAN        SUNNY     81  21  11 SW12      30.07S
$$

AZZ004>008-015-016-018-290200-
NORTH CENTRAL ARIZONA

CITY           SKY/WX    TMP DP  RH WIND       PRES   REMARKS
GRAND CANYON   CLEAR     68  13  12 W8G17     30.23R
WILLIAMS       CLEAR     68  18  14 SW13      30.31S
PRESCOTT       CLEAR     73  14  10 SW9       30.17S
FLAGSTAFF      CLEAR     65  12  12 SW15      30.27R
PAYSON         CLEAR     73  14  10 SW7       30.20S
PAGE           CLEAR     80  19  10 W8        30.05R
$$

AZZ009>014-017-290200-
NORTHEAST ARIZONA

CITY           SKY/WX    TMP DP  RH WIND       PRES   REMARKS
WINSLOW        CLEAR     77   8   7 W16       30.13R
SAINT JOHNS    FAIR      75 -12   3 W18       30.15R
WINDOW ROCK    CLEAR     70   5   8 W9        30.21R
SHOW LOW       FAIR      66   0   7 W15       30.26S
$$

AZZ023-290200-
GREATER PHOENIX AREA

CITY           SKY/WX    TMP DP  RH WIND       PRES   REMARKS
PHOENIX        PTCLDY    93  13   5 NW7       29.93S
BUCKEYE        CLEAR     91  27   9 SE3       29.94S
GLENDALE       PTCLDY    91  16   6 S3        29.95S
DEER VALLEY    CLEAR     88  20   8 SW6       29.95S
SCOTTSDALE     CLEAR     90  15   6 W6        29.97S
MESA-FALCON    PTCLDY    90   9   5 SW6         N/A
MESA-GATEWAY   CLEAR     90  19   7 N3        29.98S
CHANDLER       CLEAR     91  19   7 NW7       29.95S
$$

AZZ027-028-290200-
SOUTHWEST MARICOPA COUNTY AND PINAL COUNTY

CITY           SKY/WX    TMP DP  RH WIND       PRES   REMARKS
CASA GRANDE    CLEAR     91  27   9 NW6       29.95S
$$

AZZ503-504-507>509-290200-
SOUTHEAST ARIZONA

CITY           SKY/WX    TMP DP  RH WIND       PRES   REMARKS
TUCSON         CLEAR     89  18   7 N10       30.04S
NOGALES        CLEAR     84  16   8 W8        30.10R
DOUGLAS        CLEAR     83  19   9 N7        30.10S
SAFFORD        CLEAR     86   7   5 NW15G23   30.03R
$$

AZZ020-021-025-026-031-290200-
SOUTHWEST ARIZONA

CITY           SKY/WX    TMP DP  RH WIND       PRES   REMARKS
YUMA           SUNNY     95  27   9 NW3       29.89S
$$

CAZ031-033-041-043-047-048-061-290200-
SOUTHERN CALIFORNIA

CITY           SKY/WX    TMP DP  RH WIND       PRES   REMARKS
DOWNTOWN L.A.  SUNNY     74  56  53 VRB6      30.00R
L.A. AIRPORT   MOSUNNY   64  58  80 W12       30.01S
SAN DIEGO      MOSUNNY   71  58  63 W7        30.02S
BURBANK        SUNNY     82  34  17 S8        30.00S
ONTARIO        MOSUNNY   83  29  14 W12       30.00S
RIVERSIDE      SUNNY     83  29  14 W12       29.99R
PALM SPRINGS   SUNNY     97  24   7 NW15      29.89S
EL CENTRO NAS  MOSUNNY   94  46  19 E6        29.85F
IMPERIAL       MOSUNNY   96  35  11 SE12      29.85S
BLYTHE         SUNNY     95  32  11 SE7       29.88F
NEEDLES        SUNNY     95  18   6 S9        29.90S
$$

NVZ020-UTZ003-290200-
SOUTHERN NEVADA-UTAH

CITY           SKY/WX    TMP DP  RH WIND       PRES   REMARKS
LAS VEGAS      SUNNY     89   6   4 S14       29.92S
SALT LAKE CITY MOCLDY    67  32  27 N8        30.12R
$$

NMZ009-TXZ055-290200-
NEW MEXICO-WEST TEXAS

CITY           SKY/WX    TMP DP  RH WIND       PRES   REMARKS
ALBUQUERQUE    CLEAR     78  14   9 W9        30.08S
EL PASO        FAIR      85   6   5 W8        30.05S
$$


........................KEY........................
SKY/WX - SKY CONDITION/WEATHER
TMP    - TEMPERATURE IN FAHRENHEIT
DP     - DEW POINT IN FAHRENHEIT
RH     - RELATIVE HUMIDITY IN PERCENT
WIND   - DIRECTION AND SPEED IN MILES PER HOUR (MPH)
VRB    - VARIABLE WIND DIRECTION
PRES   - MEAN SEA LEVEL PRESSURE IN INCHES OF MERCURY
         F - FALLING PRESSURE   R - RISING PRESSURE
         S - STEADY PRESSURE
VSB    - VISIBILITY IN MILES
HX     - HEAT INDEX IN FAHRENHEIT
WCI    - WIND CHILL INDEX IN FAHRENHEIT
TC     - TEMPERATURE IN CELSIUS WHICH IS ALSO KNOWN AS
         TEMPERATURE IN CENTIGRADE
AFB    - AIR FORCE BASE
         LUKE AFB IS LUKE AIR FORCE BASE
         DAVIS-MONTHAN IS DAVIS-MONTHAN AIR FORCE BASE
NAS    - NAVAL AIR STATION
         EL CENTRO NAS IS EL CENTRO NAVAL AIR STATION
N/A    - NOT AVAILABLE




USA.gov is the U.S. government's official web portal to all federal, state and local government web resources and services.